[[{"header":{"parameterUnit":"m.s-1","parameterCategory":1,"la1":30.2991,"la2":30.254,"lo1":-89.0895,"lo2":-89.0444,"dy":0.0017,"dx":0.0017,"nx":28,"ny":28,"refTime":"2024-07-12T21:00:00:Z","depth":0,"parameterNumber":2,"parameterNumberName":"U-component_of_WINDS"},"data":[0,0,0,0,0,0,0,0,0,0,0,0,0,0,0,0,0,0,0,0,0,0,0,0,0,0,0,0,0,0,0,0,0,0,0,0,0,0,0,0,0,0,0,0,0,0,0,0,0,0,0,0,0,0,0,0,0,0,2.0078,2.0078,0,2.0136,2.0136,2.0137,2.0077,2.0075,2.0072,2.007,2.0133,2.0136,2.014,0,0,0,0,0,0,0,0,0,0,0,0,0,1.9918,1.9921,2.0078,2.0078,2.0079,2.0136,2.0136,2.0137,2.0077,2.0074,2.0072,2.0069,2.0131,2.0136,2.0141,0,0,0,0,0,0,0,0,0,0,0,0,0,1.9983,1.9922,2.0078,2.0056,2.0055,2.0135,2.0136,2.0137,2.0078,2.0074,2.0071,2.0068,2.013,2.0136,2.0141,2.0247,0,0,2.0159,2.0161,0,0,0,0,0,0,0,0,1.9979,1.9989,2.0058,2.0058,2.0056,2.0095,2.0103,2.0174,2.0079,2.0069,2.007,2.0066,2.0123,2.0129,2.0148,2.025,2.0253,2.0159,2.0163,2.0165,2.0167,0,0,0,0,0,0,0,1.9975,1.9986,2.0101,2.006,2.0058,2.0044,2.005,2.0116,2.0115,2.007,2.0065,2.0073,2.0122,2.0143,2.0149,2.0254,2.0159,2.0164,2.0168,2.017,2.0445,2.0449,0,0,0,0,0,0,1.9972,1.9982,2.0099,2.0102,2.0008,2.005,2.0056,2.0086,2.0114,2.0115,2.0076,2.007,2.0135,2.0143,2.0151,2.0277,2.0165,2.0171,2.0174,2.0441,2.0446,2.045,0,0,0,0,0,0,1.9969,1.9983,2.0097,2.0041,2.0055,2.0056,2.0091,2.0089,2.011,2.0119,2.0119,2.0097,2.0132,2.0143,2.0223,2.0278,2.0173,2.0179,2.0437,2.0443,2.0448,2.0529,0,0,0,0,0,0,1.9965,1.9982,2.0022,2.0043,2.0058,2.0167,2.0095,2.0093,2.012,2.0112,2.0139,2.014,2.013,2.0215,2.0229,2.0284,2.0183,2.0432,2.044,2.0446,2.0522,2.0537,2.055,0,0,0,0,0,1.9959,2.0043,2.0024,2.0039,2.0107,2.0171,2.0179,2.0166,2.0124,2.0165,2.017,2.0139,2.027,2.0224,2.0239,2.0297,2.0429,2.0437,2.0446,2.0515,2.0534,2.055,0,0,0,0,0,0,2.003,2.0046,2.0025,2.0118,2.0143,2.016,2.0211,2.0186,2.0224,2.0216,2.0198,2.0205,2.029,2.0301,2.025,2.0401,2.0343,2.0355,2.039,2.0408,2.0422,2.0417,2.0188,0,0,0,0,0,2.0057,2.0106,2.0117,2.0198,2.0212,2.0209,2.0236,2.0223,2.0249,2.026,2.0272,2.0299,2.0346,2.0378,2.0421,2.0523,2.0528,2.057,2.0584,2.0596,2.0607,2.0661,2.0679,2.0479,2.0479,2.0478,0,0,2.0112,2.0126,2.0159,2.0213,2.0231,2.0283,2.0219,2.0277,2.0315,2.0269,2.0345,2.0355,2.0384,2.0475,2.0516,2.0488,2.0663,2.0607,2.0616,2.062,2.0671,2.069,2.0707,2.0485,2.0483,2.0483,0,0,2.0239,2.0255,2.0324,2.0343,2.0371,2.0369,2.0386,2.0406,2.041,2.0486,2.0453,2.0499,2.0581,2.0602,2.0624,2.076,2.0732,2.0775,2.0849,2.0902,2.0918,2.0932,2.098,2.0997,2.0785,2.0785,2.0786,0,2.0305,2.0381,2.0363,2.0423,2.0448,2.0408,2.0478,2.0498,2.0539,2.0557,2.0524,2.0625,2.0642,2.0738,2.0771,2.079,2.0809,2.0771,2.0917,2.0931,2.0943,2.0989,2.1007,2.079,2.079,2.0789,2.0789,0,2.046,2.0513,2.0566,2.0606,2.0636,2.0701,2.0694,2.0728,2.0712,2.0713,2.0791,2.081,2.0857,2.0878,2.0864,2.0972,2.0953,2.0919,2.086,2.0968,2.101,2.1028,2.0797,2.0796,2.0794,2.0793,0,0,2.0634,2.0662,2.0682,2.0699,2.0727,2.0768,2.0831,2.0876,2.0905,2.0935,2.0988,2.1057,2.1025,2.105,2.1038,2.1085,2.119,2.1044,2.1045,2.1071,2.131,2.1335,2.1356,2.1172,2.1175,2.1178,2.1307,0,2.0762,2.087,2.0856,2.096,2.101,2.0972,2.1027,2.105,2.1053,2.1096,2.1099,2.1149,2.1103,2.1118,2.1162,2.1168,2.1238,2.1158,2.1221,2.1224,2.1215,2.1378,2.1406,2.1527,2.1324,2.1327,2.1329,0,2.0925,2.0959,2.1069,2.1088,2.1108,2.1158,2.1197,2.1238,2.1264,2.1263,2.1291,2.127,2.1334,2.1274,2.1362,2.1308,2.1333,2.134,2.1344,2.135,2.1283,2.1388,2.1565,2.1584,2.1355,2.1353,2.1351,0,2.1041,2.1114,2.1189,2.1205,2.123,2.1266,2.1278,2.13,2.1327,2.1362,2.138,2.1422,2.1446,2.1479,2.1471,2.1428,2.1561,2.15,2.1562,2.1562,2.1592,2.159,2.1776,2.1608,2.1608,2.1608,2.1607,0,2.1184,2.1253,2.1241,2.1287,2.1363,2.1346,2.1421,2.1429,2.1449,2.1496,2.1466,2.1511,2.1498,2.1542,2.1536,2.161,2.1621,2.1622,2.162,2.1625,2.1625,2.1641,2.1632,2.1613,2.1612,2.1611,2.161,0,2.1326,2.1321,2.14,2.1417,2.1422,2.1477,2.1492,2.1535,2.1536,2.1596,2.1609,2.161,2.1661,2.1656,2.1713,2.1709,2.18,2.1788,2.1792,2.1789,2.1851,2.1845,2.2053,2.208,2.1895,2.1897,2.1899,0,2.1418,2.1469,2.1491,2.152,2.1535,2.1582,2.161,2.1595,2.1626,2.1659,2.1698,2.1746,2.1784,2.1867,2.1873,2.1917,2.1905,2.1975,2.1912,2.1915,2.1906,2.1903,2.1908,2.1988,2.199,2.1992,2.1993,0,2.1582,2.1577,2.1617,2.1657,2.1691,2.1722,2.175,2.1776,2.1764,2.18,2.1851,2.188,2.1938,2.1986,2.2027,2.204,2.2016,2.2013,2.203,2.2035,2.2035,2.2036,2.1825,2.2008,2.2007,2.2006,2.2005,2.2004,2.1701,2.1745,2.1767,2.1813,2.1833,2.1859,2.1901,2.1906,2.1948,2.1994,2.1983,2.2041,2.2065,2.2118,2.2135,2.218,2.2155,2.2179,2.2185,2.2191,2.2198,2.2028,2.2188,2.2187,2.2187,2.2187,2.2186,0,2.1863,2.1875,2.1918,2.1957,2.1994,2.1966,2.1996,2.2028,2.2079,2.2103,2.2141,2.22,2.2246,2.2256,2.23,2.2335,2.2324,2.2347,2.2344,2.2347,2.2219,2.22,2.2354,2.2354,2.2354,2.2354,2.2354,2.2354,2.1951,2.2024,2.2021,2.2103,2.2115,2.2171,2.219,2.2215,2.2234,2.2301,2.2339,2.2344,2.2363,2.2408,2.245,2.2451,2.2469,2.2496,2.2494,2.2373,2.2356,2.234,2.2322,2.25,2.2501,2.2618,2.2619,2.262]},{"header":{"parameterUnit":"m.s-1","parameterCategory":1,"la1":30.2991,"la2":30.254,"lo1":-89.0895,"lo2":-89.0444,"dy":0.0017,"dx":0.0017,"nx":28,"ny":28,"refTime":"2024-07-12T21:00:00:Z","depth":0,"parameterNumber":3,"parameterNumberName":"V-component_of_WINDS"},"data":[0,0,0,0,0,0,0,0,0,0,0,0,0,0,0,0,0,0,0,0,0,0,0,0,0,0,0,0,0,0,0,0,0,0,0,0,0,0,0,0,0,0,0,0,0,0,0,0,0,0,0,0,0,0,0,0,0,0,2.8467,2.8468,0,2.8524,2.8524,2.8525,2.8569,2.8569,2.857,2.857,2.8626,2.8627,2.8628,0,0,0,0,0,0,0,0,0,0,0,0,0,2.8391,2.8392,2.8467,2.8468,2.8468,2.8524,2.8525,2.8525,2.8569,2.8569,2.857,2.857,2.8625,2.8627,2.8628,0,0,0,0,0,0,0,0,0,0,0,0,0,2.8434,2.8393,2.8467,2.8497,2.85,2.8524,2.8525,2.8526,2.8569,2.8569,2.857,2.857,2.8625,2.8626,2.8628,2.8626,0,0,2.8633,2.8634,0,0,0,0,0,0,0,0,2.8431,2.8436,2.8492,2.8495,2.8498,2.854,2.8518,2.8559,2.8568,2.8542,2.857,2.8571,2.8596,2.86,2.861,2.8628,2.8631,2.8633,2.8634,2.8635,2.8635,0,0,0,0,0,0,0,2.8428,2.8434,2.8489,2.8492,2.8496,2.8506,2.8513,2.8526,2.8565,2.8545,2.8548,2.8554,2.8598,2.8608,2.8611,2.8631,2.8633,2.8635,2.8636,2.8636,2.8648,2.8647,0,0,0,0,0,0,2.8421,2.8431,2.8488,2.8491,2.8466,2.8507,2.8514,2.8526,2.8565,2.8572,2.8554,2.8556,2.8605,2.8609,2.8613,2.8611,2.8635,2.8636,2.8637,2.8648,2.8647,2.8647,0,0,0,0,0,0,2.8419,2.8426,2.8485,2.8462,2.847,2.8507,2.852,2.8527,2.8536,2.8572,2.8579,2.8557,2.8606,2.8611,2.8622,2.8614,2.8637,2.8639,2.8649,2.8648,2.8647,2.8608,0,0,0,0,0,0,2.8417,2.8425,2.8426,2.8462,2.8472,2.8494,2.852,2.8527,2.8539,2.8543,2.8577,2.8583,2.8606,2.8619,2.8623,2.8616,2.864,2.865,2.8649,2.8647,2.861,2.8606,2.8602,0,0,0,0,0,2.8414,2.8412,2.8425,2.8432,2.8473,2.8494,2.8499,2.8527,2.8539,2.8539,2.8561,2.8582,2.8614,2.862,2.8625,2.8618,2.8651,2.8649,2.8647,2.8612,2.8606,2.8602,0,0,0,0,0,0,2.8374,2.8418,2.8433,2.8443,2.8464,2.8501,2.8502,2.8521,2.8539,2.8541,2.8575,2.8582,2.8588,2.8605,2.861,2.8617,2.8635,2.8634,2.8606,2.8601,2.8597,2.8593,2.8641,0,0,0,0,0,2.8367,2.838,2.8417,2.8423,2.8433,2.8465,2.8475,2.8495,2.8518,2.8527,2.855,2.857,2.8585,2.8594,2.861,2.8612,2.8619,2.861,2.8606,2.8603,2.8601,2.8601,2.8597,2.8642,2.8642,2.8642,0,0,2.8351,2.8377,2.8384,2.8415,2.8434,2.8446,2.8473,2.8485,2.8493,2.8528,2.854,2.8557,2.8582,2.8588,2.8592,2.8602,2.8591,2.8601,2.8598,2.8599,2.8599,2.8595,2.8591,2.8641,2.8641,2.8641,0,0,2.8329,2.835,2.8356,2.8374,2.8402,2.8423,2.8424,2.8457,2.847,2.8482,2.8508,2.8517,2.8543,2.8558,2.857,2.855,2.8568,2.8554,2.8532,2.8532,2.8528,2.8525,2.8516,2.8513,2.8553,2.8553,2.8553,0,2.8306,2.8326,2.8357,2.8366,2.8378,2.841,2.8415,2.843,2.8461,2.8468,2.8479,2.8509,2.8529,2.8537,2.8532,2.8541,2.8542,2.855,2.8527,2.8524,2.8521,2.8513,2.851,2.8551,2.8551,2.8551,2.8551,0,2.8295,2.8308,2.8309,2.8338,2.835,2.8358,2.8387,2.8395,2.8413,2.8432,2.8442,2.8466,2.8486,2.8489,2.8507,2.85,2.8505,2.8521,2.8539,2.8515,2.8507,2.8504,2.8548,2.8548,2.8549,2.8549,0,0,2.8252,2.8295,2.8295,2.8307,2.8338,2.8348,2.8355,2.8375,2.838,2.84,2.8405,2.8424,2.8438,2.8451,2.847,2.847,2.845,2.8486,2.8487,2.8477,2.844,2.8427,2.8423,2.8462,2.8462,2.8462,2.8437,0,2.8233,2.8249,2.8275,2.8281,2.8292,2.8321,2.8327,2.8346,2.8363,2.8374,2.8393,2.8405,2.8424,2.8431,2.8432,2.8452,2.8443,2.8454,2.8466,2.8466,2.8458,2.842,2.8407,2.8383,2.8435,2.8434,2.8434,0,2.8215,2.8232,2.8239,2.8267,2.8272,2.8277,2.8295,2.8306,2.8326,2.8339,2.8351,2.8372,2.8379,2.8396,2.8405,2.8412,2.8418,2.8428,2.8428,2.8429,2.8448,2.8418,2.8376,2.8372,2.843,2.8431,2.8431,0,2.8179,2.8204,2.8211,2.8221,2.8254,2.8256,2.827,2.8291,2.83,2.8316,2.8321,2.8337,2.8346,2.8357,2.838,2.8391,2.8385,2.8405,2.8394,2.8393,2.8391,2.8391,2.8348,2.8397,2.8397,2.8397,2.8397,0,2.8156,2.8159,2.8195,2.82,2.8203,2.8231,2.8233,2.8249,2.8267,2.8274,2.83,2.8305,2.8336,2.8344,2.8363,2.8365,2.8369,2.8378,2.8383,2.8375,2.8374,2.8379,2.8381,2.8396,2.8396,2.8396,2.8397,0,2.8118,2.8143,2.8152,2.8181,2.8189,2.8189,2.8214,2.8218,2.8236,2.8243,2.8247,2.8275,2.8285,2.831,2.8327,2.8339,2.8337,2.8346,2.833,2.8332,2.8319,2.8319,2.8277,2.8272,2.8326,2.8325,2.8325,0,2.8101,2.8103,2.8132,2.8138,2.8151,2.8161,2.8169,2.8196,2.8204,2.8226,2.8227,2.8239,2.8251,2.8266,2.8287,2.8299,2.8308,2.8293,2.8311,2.8302,2.8306,2.8305,2.8304,2.8288,2.8288,2.8287,2.8287,0,2.8067,2.8078,2.809,2.8105,2.8115,2.8128,2.8143,2.8146,2.8176,2.8183,2.8194,2.8202,2.8219,2.823,2.8246,2.8258,2.8276,2.8281,2.8279,2.827,2.826,2.8263,2.8317,2.8282,2.8282,2.8282,2.8283,2.8283,2.8038,2.8041,2.806,2.8072,2.8085,2.8097,2.8102,2.8119,2.8129,2.8145,2.816,2.8168,2.8186,2.8208,2.8219,2.8225,2.8235,2.8232,2.8231,2.823,2.8225,2.8259,2.8228,2.8228,2.8229,2.8229,2.8229,0,2.8004,2.8018,2.8028,2.8047,2.8054,2.8071,2.8087,2.8092,2.81,2.8115,2.8125,2.8135,2.8146,2.8167,2.8178,2.8179,2.8187,2.8181,2.818,2.8182,2.8217,2.8217,2.8174,2.8174,2.8174,2.8174,2.8174,2.8174,2.7988,2.7992,2.8005,2.8014,2.8028,2.8036,2.8044,2.8054,2.8066,2.8077,2.8085,2.8099,2.8115,2.8128,2.8137,2.8143,2.8145,2.8135,2.8143,2.8175,2.818,2.8185,2.8185,2.8136,2.8136,2.8108,2.8108,2.8107]}]]